CW4577 Weather Reports


time (UTC)temp
F
wind
direction
speed
knots
gust
knots
rain 1hr
in
rain 24hr
in
rain mn
in
humidity
%
barometer
mb
20260507040503 52 13 1.7 2.6 0.00 0.00 0.00 85 1021.1
20260507035504 53 12 1.7 2.6 0.00 0.00 0.00 85 1021.1
20260507034004 53 350 1.7 2.6 0.00 0.00 0.00 85 1021.0
20260507033503 53 15 1.7 2.6 0.00 0.00 0.00 85 1021.0
20260507033003 53 6 1.7 4.3 0.00 0.00 0.00 85 1020.9
20260507032504 53 20 2.6 4.3 0.00 0.00 0.00 85 1021.0
20260507032004 53 16 1.7 2.6 0.00 0.00 0.00 85 1020.9
20260507031504 53 25 2.6 4.3 0.00 0.00 0.00 84 1020.8
20260507031004 53 3 2.6 4.3 0.00 0.00 0.00 84 1020.8
20260507030503 53 20 1.7 4.3 0.00 0.00 0.00 85 1020.8
20260507030004 53 15 2.6 11.3 0.00 0.00 0.00 85 1020.8
20260507025503 53 35 2.6 7.0 0.00 0.00 0.00 84 1020.8
20260507025004 54 25 2.6 5.2 0.00 0.00 0.00 84 1020.8
20260507023504 54 2 1.7 4.3 0.00 0.00 0.00 83 1020.6
20260507023004 54 20 2.6 4.3 0.00 0.00 0.00 83 1020.5
20260507022503 54 10 1.7 4.3 0.00 0.00 0.00 83 1020.5
20260507022004 54 1 1.7 4.3 0.00 0.00 0.00 83 1020.4
20260507021504 54 16 1.7 2.6 0.00 0.00 0.00 83 1020.4
20260507021004 54 3 1.7 5.2 0.00 0.00 0.00 83 1020.5
20260507020504 54 4 2.6 4.3 0.00 0.00 0.00 83 1020.5
20260507020004 54 2 2.6 7.0 0.00 0.00 0.00 83 1020.5
20260507015503 54 344 1.7 7.0 0.00 0.00 0.00 82 1020.5
20260507015004 55 354 1.7 4.3 0.00 0.00 0.00 83 1020.6
20260507014504 55 12 1.7 2.6 0.00 0.00 0.00 83 1020.6
20260507014004 55 22 3.5 10.4 0.00 0.00 0.00 82 1020.6
20260507013504 55 5 2.6 4.3 0.00 0.00 0.00 83 1020.6
20260507013004 55 0 1.7 4.3 0.00 0.00 0.00 83 1020.6
20260507012503 55 25 1.7 5.2 0.00 0.00 0.00 83 1020.6
20260507011504 55 29 1.7 7.0 0.00 0.00 0.00 82 1020.6
20260507010503 56 19 1.7 7.8 0.00 0.00 0.00 82 1020.6
20260507010004 56 30 2.6 7.0 0.00 0.00 0.00 82 1020.7
20260507005004 56 345 3.5 7.8 0.00 0.00 0.00 82 1020.8
20260507004504 56 1 2.6 7.0 0.00 0.00 0.00 81 1020.8
20260507004004 56 12 2.6 7.8 0.00 0.00 0.00 82 1020.7
20260507003503 56 11 2.6 4.3 0.00 0.00 0.00 82 1020.7
20260507003004 56 16 1.7 6.1 0.00 0.00 0.00 82 1020.7
20260507002503 56 350 4.3 10.4 0.00 0.00 0.00 81 1020.7
20260507002004 56 9 1.7 7.0 0.00 0.00 0.00 81 1020.7
20260507001504 57 12 1.7 2.6 0.00 0.00 0.00 82 1020.7
20260507000504 57 354 1.7 4.3 0.00 0.00 0.00 82 1020.7
20260507000004 57 23 1.7 2.6 0.00 0.00 0.00 82 1020.6
20260506235504 57 358 2.6 4.3 0.00 0.00 0.00 81 1020.7
20260506235004 57 4 2.6 7.0 0.00 0.00 0.00 81 1020.7
20260506234504 57 341 2.6 4.3 0.00 0.00 0.00 80 1020.7
20260506234004 57 6 2.6 7.0 0.00 0.00 0.00 80 1020.7
20260506233504 57 348 2.6 5.2 0.00 0.00 0.00 80 1020.6
20260506233003 58 16 2.6 7.8 0.00 0.00 0.00 79 1020.6
20260506232504 58 355 1.7 4.3 0.00 0.00 0.00 79 1020.5
20260506232004 58 3 1.7 7.0 0.00 0.00 0.00 79 1020.5
20260506231504 59 3 2.6 2.6 0.00 0.00 0.00 78 1020.6
20260506231004 59 345 2.6 5.2 0.00 0.00 0.00 78 1020.6
20260506230504 59 1 2.6 4.3 0.00 0.00 0.00 78 1020.6
20260506230004 59 350 3.5 6.1 0.00 0.00 0.00 76 1020.7
20260506225503 60 335 1.7 5.2 0.00 0.00 0.00 77 1020.7
20260506225004 60 9 2.6 5.2 0.00 0.00 0.00 77 1020.7
20260506224504 60 5 2.6 7.8 0.00 0.00 0.00 77 1020.7
20260506224004 61 6 2.6 4.3 0.00 0.00 0.00 76 1020.6
20260506223504 61 339 2.6 8.7 0.00 0.00 0.00 75 1020.6
20260506222504 61 359 2.6 5.2 0.00 0.00 0.00 75 1020.7
20260506222004 61 28 1.7 2.6 0.00 0.00 0.00 76 1020.7
20260506221504 61 0 1.7 4.3 0.00 0.00 0.00 75 1020.8
20260506221004 62 32 1.7 6.1 0.00 0.00 0.00 75 1020.8
20260506220504 62 340 1.7 7.8 0.00 0.00 0.00 75 1020.8
20260506215503 62 333 2.6 7.0 0.00 0.00 0.00 73 1020.8
20260506215004 62 1 3.5 7.0 0.00 0.00 0.00 73 1020.8
20260506214504 62 345 2.6 7.8 0.00 0.00 0.00 73 1020.7
20260506214004 62 348 2.6 5.2 0.00 0.00 0.00 74 1020.7
20260506213504 62 349 1.7 2.6 0.00 0.00 0.00 74 1020.7
20260506212504 63 18 2.6 4.3 0.00 0.00 0.00 73 1020.7
20260506212003 63 353 2.6 5.2 0.00 0.00 0.00 73 1020.7
20260506211504 63 356 1.7 4.3 0.00 0.00 0.00 72 1020.8
20260506211004 63 300 2.6 5.2 0.00 0.00 0.00 70 1020.8
20260506210503 63 21 1.7 2.6 0.00 0.00 0.00 73 1020.7
20260506210004 63 81 1.7 2.6 0.00 0.00 0.00 72 1020.7
20260506205504 63 43 2.6 2.6 0.00 0.00 0.00 72 1020.7
20260506204004 62 115 1.7 2.6 0.00 0.00 0.00 75 1020.6
20260506203004 62 55 1.7 5.2 0.00 0.00 0.00 72 1020.8
20260506202503 62 355 1.7 5.2 0.00 0.00 0.00 78 1020.7
20260506202004 61 16 1.7 2.6 0.00 0.00 0.00 80 1020.8
20260506201504 61 173 0.9 2.6 0.00 0.00 0.00 77 1020.8
20260506200504 60 187 1.7 2.6 0.00 0.00 0.00 75 1020.9
20260506200004 60 233 1.7 2.6 0.00 0.00 0.00 78 1020.8
20260506195503 59 20 1.7 2.6 0.00 0.00 0.00 81 1020.9
20260506195004 59 28 1.7 2.6 0.00 0.00 0.00 80 1020.8
20260506194504 59 22 1.7 2.6 0.00 0.00 0.00 80 1020.8
20260506194004 59 344 1.7 2.6 0.00 0.00 0.00 81 1020.8
20260506193504 59 358 1.7 2.6 0.00 0.00 0.00 82 1020.9
20260506193003 58 13 1.7 2.6 0.00 0.00 0.00 83 1020.8
20260506192504 58 17 1.7 2.6 0.00 0.00 0.00 84 1020.8
20260506192004 58 334 1.7 4.3 0.00 0.00 0.00 85 1020.7
20260506191003 57 8 1.7 2.6 0.00 0.00 0.00 86 1021.0
20260506190503 57 333 1.7 2.6 0.00 0.00 0.00 86 1021.0
20260506190004 57 0 1.7 2.6 0.00 0.00 0.00 86 1021.0
20260506185504 56 348 2.6 4.3 0.00 0.00 0.00 87 1021.0
20260506185004 56 31 0.9 1.7 0.00 0.00 0.00 87 1021.0
20260506184503 56 42 1.7 2.6 0.00 0.00 0.00 86 1021.0
20260506184003 56 23 2.6 2.6 0.00 0.00 0.00 87 1021.0
20260506183504 56 349 1.7 2.6 0.00 0.00 0.00 87 1020.9
20260506183005 56 355 1.7 2.6 0.00 0.00 0.00 87 1020.9
20260506182503 56 8 1.7 2.6 0.00 0.00 0.00 87 1020.9
20260506181504 56 348 1.7 2.6 0.00 0.00 0.00 87 1021.0
20260506180504 55 14 0.9 1.7 0.00 0.00 0.00 87 1020.9
20260506180004 55 24 0.9 2.6 0.00 0.00 0.00 87 1020.9
20260506175503 55 26 1.7 2.6 0.00 0.00 0.00 88 1020.9
20260506175004 55 27 1.7 2.6 0.00 0.00 0.00 89 1020.8
20260506174504 55 354 1.7 2.6 0.00 0.00 0.00 89 1020.7
20260506173504 55 18 0.9 2.6 0.00 0.00 0.00 88 1020.5
20260506173003 55 339 0.9 2.6 0.00 0.00 0.00 89 1020.5
20260506172504 55 355 0.9 1.7 0.00 0.00 0.00 89 1020.6
20260506172004 55 358 0.9 2.6 0.00 0.00 0.00 89 1020.6
20260506171503 55 52 0.9 1.7 0.00 0.00 0.00 89 1020.6
20260506171004 54 314 0.9 1.7 0.00 0.00 0.00 89 1020.6
20260506170504 54 308 0.9 1.7 0.00 0.00 0.00 88 1020.3
20260506170004 54 339 0.0 1.7 0.00 0.00 0.00 89 1020.4
20260506165503 54 351 0.0 2.6 0.00 0.00 0.00 88 1020.4
20260506165004 54 340 2.6 2.6 0.00 0.00 0.00 88 1020.5
20260506164504 54 0 1.7 2.6 0.00 0.00 0.00 88 1020.5
20260506164003 54 357 1.7 2.6 0.00 0.00 0.00 88 1020.5
20260506163504 54 336 0.9 2.6 0.00 0.00 0.00 89 1020.4
20260506163004 54 334 1.7 2.6 0.00 0.00 0.00 89 1020.4
20260506162504 54 320 1.7 2.6 0.00 0.00 0.00 89 1020.4
20260506161504 53 340 1.7 2.6 0.00 0.00 0.00 90 1020.2
20260506161003 53 67 0.9 1.7 0.00 0.00 0.00 90 1020.4
20260506160504 53 18 0.9 2.6 0.00 0.00 0.00 89 1020.4
20260506160004 53 341 1.7 2.6 0.00 0.00 0.00 89 1020.4
20260506155504 53 357 2.6 4.3 0.00 0.00 0.00 89 1020.4
20260506155004 53 355 0.9 2.6 0.00 0.00 0.00 89 1020.3
20260506154503 53 333 1.7 2.6 0.00 0.00 0.00 90 1020.3
20260506154004 53 26 0.9 2.6 0.00 0.00 0.00 90 1020.2
20260506153004 53 17 1.7 2.6 0.00 0.00 0.00 91 1019.9
20260506152504 53 56 0.9 2.6 0.00 0.00 0.00 91 1020.0
20260506152003 53 15 0.9 2.6 0.00 0.00 0.00 91 1019.8
20260506151504 52 306 0.9 1.7 0.00 0.00 0.00 92 1019.4
20260506151004 52 267 0.9 2.6 0.00 0.00 0.00 92 1019.4
20260506150504 52 323 1.7 2.6 0.00 0.00 0.00 92 1019.6
20260506145504 52 21 0.9 2.6 0.00 0.00 0.00 92 1019.9
20260506144504 51 324 2.6 5.2 0.00 0.00 0.00 93 1020.0
20260506144004 51 16 0.9 2.6 0.00 0.00 0.00 93 1020.0
20260506143504 51 15 0.9 2.6 0.00 0.00 0.00 93 1020.1
20260506142504 51 18 1.7 2.6 0.00 0.00 0.00 93 1020.2
20260506142004 51 13 1.7 2.6 0.00 0.00 0.00 93 1020.3
20260506141004 51 4 1.7 5.2 0.00 0.00 0.00 93 1020.0
20260506140504 51 20 2.6 4.3 0.00 0.00 0.00 93 1020.0
20260506140004 51 30 0.9 2.6 0.00 0.00 0.00 93 1019.9
20260506135504 51 19 2.6 4.3 0.00 0.00 0.00 93 1020.0
20260506135003 51 4 1.7 2.6 0.00 0.00 0.00 93 1019.7
20260506134004 51 351 1.7 2.6 0.00 0.00 0.00 93 1019.5
20260506133504 51 342 1.7 2.6 0.00 0.00 0.00 93 1019.4
20260506133003 51 23 1.7 2.6 0.00 0.00 0.00 93 1019.4
20260506132504 51 21 1.7 2.6 0.00 0.00 0.00 93 1019.6
20260506132005 51 347 0.9 2.6 0.00 0.00 0.00 93 1019.6
20260506131504 51 15 1.7 2.6 0.00 0.00 0.00 93 1019.5
20260506131004 51 23 0.9 2.6 0.00 0.00 0.00 93 1019.4
20260506130503 51 10 1.7 2.6 0.00 0.00 0.00 93 1019.3
20260506130004 51 25 1.7 2.6 0.00 0.00 0.00 93 1019.3
20260506125004 51 23 1.7 2.6 0.00 0.00 0.00 93 1019.3
20260506124504 51 15 1.7 2.6 0.00 0.00 0.00 93 1019.2
20260506123503 51 23 0.9 2.6 0.00 0.00 0.00 93 1019.0
20260506122003 51 29 1.7 2.6 0.00 0.00 0.00 93 1018.9
20260506121504 51 21 1.7 2.6 0.00 0.00 0.00 93 1018.8
20260506121003 51 21 0.9 2.6 0.00 0.00 0.00 93 1018.9
20260506120004 51 349 1.7 2.6 0.00 0.00 0.00 93 1018.9
20260506114504 52 21 0.9 2.6 0.00 0.00 0.00 93 1018.8
20260506114004 52 27 1.7 2.6 0.00 0.00 0.00 93 1018.9
20260506113004 52 22 1.7 4.3 0.00 0.00 0.00 93 1018.9
20260506112004 52 22 1.7 2.6 0.00 0.00 0.00 93 1018.7
20260506111004 52 11 1.7 2.6 0.00 0.00 0.00 93 1018.5
20260506110004 52 10 1.7 2.6 0.00 0.00 0.00 93 1018.5
20260506105503 52 25 1.7 2.6 0.00 0.00 0.00 92 1018.4
20260506105004 52 19 0.9 2.6 0.00 0.00 0.00 92 1018.4
20260506104503 52 2 1.7 2.6 0.00 0.00 0.00 92 1018.4
20260506104004 52 3 1.7 4.3 0.00 0.00 0.00 92 1018.4
20260506103004 52 22 1.7 5.2 0.00 0.00 0.00 92 1018.3
20260506102503 53 13 1.7 2.6 0.00 0.00 0.00 92 1018.3
20260506101503 53 9 1.7 2.6 0.00 0.00 0.00 92 1018.1
20260506100504 53 7 1.7 4.3 0.00 0.00 0.00 93 1018.1
20260506100004 53 331 1.7 4.3 0.00 0.00 0.00 92 1018.0
20260506095504 53 0 2.6 4.3 0.00 0.00 0.00 92 1017.9
20260506095004 53 9 0.9 2.6 0.00 0.00 0.00 92 1017.8
20260506094504 53 14 1.7 2.6 0.00 0.00 0.00 92 1017.8
20260506094004 53 341 1.7 4.3 0.00 0.00 0.00 92 1017.7
20260506093004 53 17 0.9 2.6 0.00 0.00 0.00 92 1017.7
20260506092504 53 3 1.7 5.2 0.00 0.00 0.00 92 1017.7
20260506092003 53 352 2.6 4.3 0.00 0.00 0.00 92 1017.6
20260506091504 53 343 1.7 2.6 0.00 0.00 0.00 92 1017.6
20260506091004 53 340 1.7 4.3 0.00 0.00 0.00 92 1017.6
20260506090504 53 2 1.7 5.2 0.00 0.00 0.00 92 1017.5
20260506090004 53 11 2.6 4.3 0.00 0.00 0.00 92 1017.5
20260506085503 53 9 2.6 4.3 0.00 0.00 0.00 92 1017.5
20260506085003 53 18 2.6 4.3 0.00 0.00 0.00 92 1017.6
20260506084004 53 6 1.7 2.6 0.00 0.00 0.00 92 1017.5
20260506083504 53 11 1.7 2.6 0.00 0.00 0.00 92 1017.6
20260506083004 53 23 1.7 2.6 0.00 0.00 0.00 92 1017.6
20260506082503 53 11 1.7 4.3 0.00 0.00 0.00 92 1017.6
20260506082004 53 18 1.7 2.6 0.00 0.00 0.00 92 1017.6
20260506081504 53 18 1.7 2.6 0.00 0.00 0.00 92 1017.5
20260506081004 53 345 1.7 2.6 0.00 0.00 0.00 92 1017.5
20260506080503 53 350 1.7 2.6 0.00 0.00 0.00 92 1017.5
20260506073504 53 19 1.7 2.6 0.00 0.00 0.00 92 1017.4
20260506072503 53 36 1.7 2.6 0.00 0.00 0.00 92 1017.3
20260506071506 53 37 1.7 2.6 0.00 0.00 0.00 93 1017.3
20260506071005 53 13 1.7 2.6 0.00 0.00 0.00 93 1017.1
20260506070504 52 19 1.7 2.6 0.00 0.00 0.00 93 1017.1
20260506062504 52 20 0.9 2.6 0.00 0.00 0.00 92 1016.9
20260506062003 53 350 0.9 2.6 0.00 0.00 0.00 92 1016.9
20260506061504 53 13 1.7 2.6 0.00 0.00 0.00 92 1016.8
20260506061004 53 11 1.7 2.6 0.00 0.00 0.00 92 1016.7
20260506051005 53 348 1.7 2.6 0.00 0.00 0.00 90 1016.6
20260506050504 54 345 0.9 2.6 0.00 0.00 0.00 89 1016.5
20260506045004 54 335 1.7 2.6 0.00 0.00 0.00 89 1016.4
20260506044004 54 333 1.7 2.6 0.00 0.00 0.00 88 1016.3
20260506043503 54 6 0.9 1.7 0.00 0.00 0.00 88 1016.3
20260506043003 55 18 0.9 2.6 0.00 0.00 0.00 88 1016.2
20260506042004 55 338 1.7 2.6 0.00 0.00 0.00 87 1016.0
20260506041504 55 356 1.7 2.6 0.00 0.00 0.00 87 1016.0
20260506041004 55 342 1.7 2.6 0.00 0.00 0.00 86 1016.0